Location: Brede
(50.9167°N, 0.6000°E)
Time: 17:40:40
(UTC+00:00)

Cosmos 2360 Rocket - Pass Details

Date: 08 August 2020
Orbit: 834 x 845 km, 71.0° (Epoch: 23 September)

Event Time Altitude Azimuth Distance (km) Brightness Sun altitude
Rises 00:10:05 0° 324° (NW) 3,416 6.2 -23.0°
Reaches altitude 10° 00:12:48 10° 314° (NW) 2,476 5.1 -23.0°
Maximum altitude 00:17:38 30° 255° (WSW) 1,475 3.3 -23.0°
Enters shadow 00:18:12 29° 244° (WSW) 1,492 3.2 -22.9°
